This demonstration page uses our WeatherBlox Daily Observations layout. Learn more.

Hourly Observations for June 19, 2017

Temp ( °F °C ) Dew Point ( °F °C ) Humidity (%) Winds ( mph kmh ) Pressure ( in mb ) Visibility ( mi km ) Precip ( " mm )
12:54 am 00:54 Mostly Cloudy 68 20 57 13.9 68 68 W 6 9 29.92 1013 10 16.0934 0 0.0254
1:54 am 01:54 Partly Cloudy 65 18.3 57 13.9 76 76 Calm 29.91 1013 10 16.0934 0 0
2:54 am 02:54 Mostly Cloudy 68 20 53 11.7 59 59 WNW 3 6 29.91 1013 10 16.0934 0 0
3:54 am 03:54 Cloudy 68 20 54 12.2 61 61 WNW 5 7 29.91 1013 10 16.0934 0 0
4:54 am 04:54 Mostly Cloudy 67 19.4 53 11.7 61 61 NNW 6 9 29.94 1014 10 16.0934 0 0
5:54 am 05:54 Mostly Cloudy 64 17.8 54 12.2 70 70 S 5 7 29.94 1014 10 16.0934 0 0
6:54 am 06:54 Mostly Sunny 67 19.4 53 11.7 61 61 NW 3 6 29.96 1015 10 16.0934 0 0
7:54 am 07:54 Sunny 69 20.6 52 11.1 55 55 WNW 5 7 29.97 1015 10 16.0934 0 0
8:54 am 08:54 Mostly Sunny 71 21.7 56 13.3 59 59 N 7 11 29.99 1016 10 16.0934 0 0
9:54 am 09:54 Sunny 75 23.9 55 12.8 50 50 NNW 10 17 30 1016 10 16.0934 0 0
10:54 am 10:54 Sunny 81 27.2 51 10.6 35 35 NNW 9 15 30 1016 10 16.0934 0 0
11:54 am 11:54 Sunny 83 28.3 48 8.9 30 30 NW 9 15 30 1016 10 16.0934 0 0
12:54 pm 12:54 Mostly Sunny 84 28.9 48 8.9 29 29 NW 17 28 30 1016 10 16.0934 0 0
1:54 pm 13:54 Sunny 85 29.4 46 7.8 26 26 NNW 15 24 29.99 1016 10 16.0934 0 0
2:54 pm 14:54 Sunny 86 30 43 6.1 22 22 NW 14 22 29.98 1015 10 16.0934 0 0
3:54 pm 15:54 Sunny 87 30.6 46 7.8 24 24 NW 10 17 29.97 1015 10 16.0934 0 0
4:54 pm 16:54 Sunny 87 30.6 44 6.7 22 22 NNW 16 26 29.97 1015 10 16.0934 0 0
5:54 pm 17:54 Sunny 87 30.6 44 6.7 22 22 NNW 8 13 29.96 1015 10 16.0934 0 0
6:54 pm 18:54 Sunny 86 30 45 7.2 24 24 NNW 6 9 29.96 1015 10 16.0934 0 0
7:54 pm 19:54 Sunny 85 29.4 46 7.8 26 26 Calm 29.96 1015 10 16.0934 0 0
8:54 pm 20:54 Sunny 78 25.6 54 12.2 43 43 Calm 29.97 1015 10 16.0934 0 0
9:54 pm 21:54 Clear 77 25 50 10 39 39 Calm 29.98 1015 10 16.0934 0 0
10:54 pm 22:54 Clear 67 19.4 59 15 76 76 Calm 29.99 1016 10 16.0934 0 0
11:54 pm 23:54 Clear 68 20 59 15 73 73 Calm 29.98 1015 10 16.0934 0 0

Powered by AerisWeather